Tracking 18852 objects as of 23-Nov-2017
HD Live streaming from Space Station
objects crossing your sky now

WESTFORD NEEDLES

Track WESTFORD NEEDLES now!
10-day predictions
WESTFORD NEEDLES is classified as:


NORAD ID: 628
Int'l Code: 1963-014F
Perigee: 3,639.2 km
Apogee: 3,693.0 km
Inclination: 87.3 °
Period: 166.8 minutes
Semi major axis: 10037 km
RCS: 0.4773 m2 (medium)
Launch date: May 9, 1963
Source: United States (US)
Launch site: AIR FORCE WESTERN TEST RANGE (AFWTR)
aabbcc
Your satellite tracking list
Your tracking list is empty




NASA's NSSDC Master Catalog

Two Line Element Set (TLE):
1 00628U 63014F   17326.92781714  .00000003  00000-0  00000+0 0  9990
2 00628  87.3247 140.7430 0026817  50.2281 310.0929  8.63357599719242
Source of the keplerian elements: AFSPC